Skip Page Navigation
NASA JPL Caltech
NASA Logo - Jet Propulsion Laboratory + View the NASA Portal
+ Center for Near-Earth Object Studies
JPL Home Earth Solar System Stars & Galaxies Technology
JPL Solar System Dynamics
BODIES ORBITS EPHEMERIDES TOOLS PHYSICAL DATA DISCOVERY FAQ SITE MAP
IMPORTANT: The SSD Announcement email list is now available. Major changes are coming in the near future, including possible hostname and/or URL changes. To be notified of such changes, subscribe to this email list.

Please visit this page for more details.


JPL Small-Body Database Browser
Search: [ help ]  
487722 (2015 RK71)
Classification: Main-belt Asteroid          SPK-ID: 2487722
Ephemeris | Orbit Diagram | Orbital Elements | Mission Design | Physical Parameters | Discovery Circumstances ]

[ show orbit diagram ]
Orbital Elements at Epoch 2458600.5 (2019-Apr-27.0) TDB
Reference: JPL 8 (heliocentric ecliptic J2000)
 Element Value Uncertainty (1-sigma)   Units 
e .06238280933132694 1.1621e-07  
a 2.750409229802594 6.5892e-08 au
q 2.578830975236697 3.1928e-07 au
i 2.919138124686164 7.957e-06 deg
node 48.22996218875325 0.0002222 deg
peri 58.1168471356785 0.00024194 deg
M 190.2838693128807 9.9594e-05 deg
tp 2459385.943632124712
(2021-Jun-20.44363212)
0.00047583 TDB
period 1666.074441009847
4.56
5.9872e-05
1.639e-07
d
yr
n .2160767797276786 7.7649e-09 deg/d
Q 2.921987484368491 7.0002e-08 au
  Orbit Determination Parameters
   # obs. used (total)      56  
   data-arc span      4205 days (11.51 yr)  
   first obs. used      2008-02-02  
   last obs. used      2019-08-08  
   planetary ephem.      DE431  
   SB-pert. ephem.      SB431-N16  
   condition code      0  
   norm. resid. RMS      .64173  
   source      ORB  
   producer      Otto Matic  
   solution date      2019-Sep-24 08:19:37  

Additional Information
 Earth MOID = 1.59734 au 
 Jupiter MOID = 2.14899 au 
 T_jup = 3.341 
[ show covariance matrix ]

Ephemeris | Orbit Diagram | Orbital Elements | Mission Design | Physical Parameters | Discovery Circumstances ]

Physical Parameter Table
Parameter Symbol Value Units Sigma Reference Notes
absolute magnitude H 17.1   n/a MPO350656  

487722 (2015 RK71)          Discovered 2011-Nov-23 by Mt. Lemmon Survey at Mount Lemmon
Reference: Last Updated: 2017-03-14

Alternate Designations
 2015 RK71 = 2011 WN52 
Ephemeris | Orbit Diagram | Orbital Elements | Mission Design | Physical Parameters | Discovery Circumstances ]
ABOUT SSD CREDITS/AWARDS PRIVACY/COPYRIGHT GLOSSARY LINKS
FirstGov
(server date/time)  
NASA Home Page
Site Manager:   Ryan S. Park
Webmaster  Alan B. Chamberlin